Weather in Mozhayka

Russia / Republic of Buryatia     52°24′42″N   110°47′17″E
temp.,
°C
wind,
m/s
gust,
m/s
humid.,
%
clouds,
%
prec.,
mm/h
press.,
hPa
HPBL,
m
8 march, mon
mon823:00−12w119320 0.0 101721
02:00−11wsw119754 0.0 101721
05:00−11sw1197100 0.0 101526
08:00−12wsw119397 0.1 101822
11:00−3w6117125 0.0 10171294
14:00−4wnw8156753 0.1 10191799
17:00−6w7176857 0.0 10211691
20:00−12wnw3118129 0.0 1026318
9 march, tue
tue923:00−18ssw00900 0.0 102920
02:00−17nnw119330 0.0 103020
05:00−17n0194100 0.0 102920
08:00−16ene119394 0.0 102721
11:00−8ese127854 0.0 1022296
14:00−4ssw127727 0.0 1017361
17:00−4wsw148532 0.0 1015294
20:00−8wsw129066 0.0 101921
10 march, wed
wed1023:00−8wsw2291100 0.0 102122
02:00−11wsw229465 0.0 102321
05:00−13sw229431 0.0 102421
08:00−14wsw129325 0.0 102823
11:00−6wsw48710 0.0 1027765
14:00−3wsw57650 0.0 10251098
17:00−3wsw36760 0.0 1024601
20:00−10w11890 0.0 102721
11 march, thu
thu1123:00−12w018941 0.0 102621
02:00−13nw119141 0.0 102521
05:00−14wnw019489 0.0 102621
08:00−12nw009445 0.0 102621
11:00−5sw238415 0.0 1024281
14:00−2sw248620 0.0 1022377
17:00−2sw138717 0.0 1021265
20:00−8w11938 0.0 102321
12 march, fri
fri1223:00−9wsw11970 0.0 102421
02:00−10wsw11960 0.0 102321
05:00−11sw11920 0.0 102321
08:00−10wnw11890 0.0 102221
11:00−2sw27760 0.0 1017325
14:00+2sw5117645 0.0 1014799
17:00+1wsw41177100 0.0 1014667
20:00−5w2288100 0.0 101832